Regional Weather Roundup
Issued by NWS

Home | Current Version | Previous Version | Text Only | Print | Product List | Glossary On
Versions: 1 2 3 4 5 6 7 8 9 10 11 12 13 14 15 16 17 18 19 20 21 22 23 24 25 26 27 28 29 30 31 32 33 34 35 36 37 38 39 40 41 42 43 44 45 46 47 48 49 50
000
ASUS43 KDTX 282010
RWRMI
MICHIGAN HOURLY REGIONAL WEATHER ROUNDUP
NATIONAL WEATHER SERVICE DETROIT/PONTIAC MI
300 PM EST SAT FEB 28 2015

NOTE: "FAIR" INDICATES FEW OR NO CLOUDS BELOW 12,000 FEET WITH NO
SIGNIFICANT WEATHER AND/OR OBSTRUCTION TO VISIBILITY.

MIZ047>049-052>055-059>063-066>070-074>076-081>083-282100-
SOUTHEAST LOWER MICHIGAN

CITY           SKY/WX    TMP DP  RH WIND       PRES   REMARKS
ADRIAN         CLOUDY    17   3  54 SW9       30.68F WCI   6
ALMA           SUNNY     20   5  53 SW9       30.64F WCI   9
ANN ARBOR      SUNNY     18   3  52 S7        30.67F WCI   9
BAD AXE        SUNNY     22   6  51 SW6       30.64F WCI  15
CARO           SUNNY     22   0  37 SW10      30.64F WCI  11
DETROIT CITY   SUNNY     21   5  50 S12       30.69F WCI   9
DETROIT        MOSUNNY   21   4  47 S5        30.69F WCI  15
FLINT          SUNNY     24   4  42 W8        30.65F WCI  15
GROSSE ILE     SUNNY     18   7  62 S9        30.69F WCI   6
HILLSDALE      MOSUNNY   19   2  47 S3        30.61F
HOWELL         SUNNY     21   1  41 SW7       30.62F WCI  13

CITY           SKY/WX    TMP DP  RH WIND       PRES   REMARKS
JACKSON        SUNNY     20   1  43 S7        30.62F WCI  11
LAMBERTVILLE   SUNNY     23   1  39 SE5       30.68F WCI  17
LANSING        MIX PCPN  20  -1  40 S10G17    30.65F WCI   9
LAPEER         FAIR      23  -1  35 SW7       30.64F WCI  15
MASON          SUNNY     21   0  41 CALM      30.63F
MONROE         SUNNY     19   5  53 S6        30.67F WCI  11
MT. CLEMENS    MOSUNNY   19   8  62 S16       30.67F WCI   4
PONTIAC        MOSUNNY   20   2  45 S10       30.63F WCI   9
PORT HOPE        N/A     21   5  50 VRB7      30.64F WCI  12
PORT HURON     SUNNY     21   5  49 S8        30.68F WCI  12
TRI CITIES     SUNNY     22   4  46 SW9       30.65F WCI  12
TROY           SUNNY     26   2  36 S9        30.68F WCI  16
SAGINAW HB     SUNNY     23   3  42 SW8       30.65F WCI  14
$$
MIZ043>046-050>051-056>058-064>065-071>073-077>080-282100-
SOUTHWEST LOWER MICHIGAN

CITY           SKY/WX    TMP DP  RH WIND       PRES   REMARKS
BATTLE CREEK   SUNNY     19   0  43 SW6       30.62F WCI  11
BENTON HARBOR  SUNNY     19   0  43 SE7       30.63F WCI  10
BIG RAPIDS     SUNNY     22   6  49 SW6       30.58F WCI  15
COLDWATER      MOSUNNY   19   0  43 S3        30.62F
FREMONT        FAIR      20   8  57 SW6       30.62F WCI  13
HOLLAND        SUNNY     21  -1  38 SW7       30.63F WCI  12
GRAND RAPIDS   MOSUNNY   19   1  45 S6        30.63F WCI  11
IONIA          FAIR      21  -2  35 S8        30.63F WCI  12
KALAMAZOO      SUNNY     18   0  45 S6        30.63F WCI  10
LUDINGTON      SUNNY     21   9  61 SW15      30.62F WCI   7
MARSHALL       SUNNY     18   1  47 S3        30.62F
MOUNT PLEASANT SUNNY     22   5  48 SW8       30.62F WCI  13
MUSKEGON       PTSUNNY   18   9  68 SW13      30.65F WCI   5
SOUTH HAVEN    SUNNY     21  -4  32 S5        30.63F WCI  15
$$
MIZ016>042-282100-
NORTHERN LOWER MICHIGAN

CITY           SKY/WX    TMP DP  RH WIND       PRES   REMARKS
ALPENA         SUNNY     26   4  38 SW6       30.57F WCI  19
BEAVER ISLAND  SUNNY     19   9  66 SW15G23   30.56S WCI   5
BELLAIRE       SUNNY     25   6  44 SW8       30.58F WCI  16
CADILLAC       SUNNY     22   5  47 S8        30.51F WCI  13
CHARLEVOIX     SUNNY     22  10  59 CALM      30.60F
FRANKFORT      SUNNY     20  10  65 S13G21    30.60F WCI   8
GAYLORD        SUNNY     22   4  46 SW8       30.51F WCI  12
GRAYLING       SUNNY     24   4  43 S8        30.54F WCI  15
HARBOR SPRINGS SUNNY     22   9  58 SW9       30.56F WCI  11
HOUGHTON LAKE  SUNNY     22   6  50 W10       30.55F WCI  11
MANISTEE       SUNNY     21   3  45 SW14      30.60F WCI   8
OSCODA         SUNNY     24   9  52 SW10      30.59F WCI  14
PELLSTON       SUNNY     21   4  47 SW9       30.56F WCI  11
ROGERS CITY    SUNNY     27   6  40 SW5       30.57F WCI  21
TRAVERSE CITY  MOSUNNY   26   7  44 S10       30.56F WCI  16
$$
MIZ007>008-015-282100-
EASTERN UPPER MICHIGAN

CITY           SKY/WX    TMP DP  RH WIND       PRES   REMARKS
KINROSS        SUNNY     23   7  50 SW10G18   30.52F WCI  12
MACKINAC ISLAN SUNNY     19   8  63 W14G20    30.55F WCI   5
NEWBERRY       SUNNY     19   6  56 S15G23    30.49F WCI   5
S. S. MARIE    SUNNY     21   3  45 S13       30.51F WCI   9
MUNISING         N/A     26  -3  28 SW10G24   30.46F WCI  16
$$
MIZ004>006-011>014-085-282100-
CENTRAL UPPER MICHIGAN

CITY           SKY/WX    TMP DP  RH WIND       PRES   REMARKS
MANISTIQUE     SUNNY     19   8  61 S14G20    30.52F WCI   6
ESCANABA       SUNNY     16   9  73 S20       30.52F WCI  -1
MENOMINEE      SUNNY     19   3  49 SW10G17   30.53F WCI   8
SAWYER-GWINN   SUNNY     23  -2  33 S14       30.41F WCI  11
$$
MIZ001>003-009>011-084-282100-
WESTERN UPPER MICHIGAN

CITY           SKY/WX    TMP DP  RH WIND       PRES   REMARKS
IRON MOUNTAIN  SUNNY     23   1  38 S13       30.42F WCI  11
HOUGHTON       MOSUNNY   22  -3  33 SW8       30.36F WCI  12
COPPER HARBOR    N/A     22   4  46 SW8       30.41F WCI  12
IRONWOOD       MOSUNNY   21   0  39 SW12      30.34F WCI   9
$$

ABBREVIATIONS USED IN REMARKS
   TC - TEMPERATURE IN CELSIUS
  WCI - WIND CHILL INDEX
   HX - HEAT INDEX
  VSB - VISIBILITY



USA.gov is the U.S. government's official web portal to all federal, state and local government web resources and services.